Time,TemperatureF,DewpointF,PressureIn,WindDirection,WindDirectionDegrees,WindSpeedMPH,WindSpeedGustMPH,Humidity,HourlyPrecipIn,Conditions,Clouds,dailyrainin,SolarRadiationWatts/m^2,SoftwareType,DateUTC
2013-04-05 00:00:00,33.1,29.3,28.67,South,180,5.8,5.8,86,0.00,CLR,FEW,0.00,0.0,WeatherDisplay:10.37,2013-04-04 22:00:00,
2013-04-05 00:05:00,33.1,29.6,28.67,South,185,6.9,6.9,87,0.00,CLR,FEW,0.00,0.0,WeatherDisplay:10.37,2013-04-04 22:05:00,
2013-04-05 00:10:00,33.1,29.6,28.67,WSW,240,5.8,5.8,87,0.00,CLR,FEW,0.00,0.0,WeatherDisplay:10.37,2013-04-04 22:10:00,
2013-04-05 00:16:00,32.9,29.5,28.67,SSW,210,4.6,4.9,87,0.00,CLR,FEW,0.00,0.0,WeatherDisplay:10.37,2013-04-04 22:16:00,
2013-04-05 00:21:00,32.7,29.3,28.67,South,185,6.9,6.9,87,0.00,CLR,FEW,0.00,0.0,WeatherDisplay:10.37,2013-04-04 22:21:00,
2013-04-05 00:26:00,32.7,29.6,28.64,South,180,4.6,4.6,88,0.00,CLR,FEW,0.00,0.0,WeatherDisplay:10.37,2013-04-04 22:26:00,
2013-04-05 00:31:00,32.7,29.6,28.64,South,180,4.6,4.6,88,0.00,CLR,FEW,0.00,0.0,WeatherDisplay:10.37,2013-04-04 22:31:00,
2013-04-05 00:36:00,32.7,29.6,28.64,SSE,160,2.3,2.3,88,0.00,CLR,FEW,0.00,0.0,WeatherDisplay:10.37,2013-04-04 22:36:00,
2013-04-05 00:41:00,32.7,29.6,28.64,NE,40,3.5,3.5,88,0.00,CLR,FEW,0.00,0.0,WeatherDisplay:10.37,2013-04-04 22:41:00,
2013-04-05 00:46:00,32.7,29.6,28.64,West,270,0.0,0.0,88,0.00,CLR,FEW,0.00,0.0,WeatherDisplay:10.37,2013-04-04 22:46:00,
2013-04-05 00:51:00,32.7,29.6,28.64,SSE,165,4.6,4.6,88,0.00,CLR,FEW,0.00,0.0,WeatherDisplay:10.37,2013-04-04 22:51:00,
2013-04-05 00:56:00,32.7,29.6,28.64,WSW,240,2.3,2.3,88,0.00,CLR,FEW,0.00,0.0,WeatherDisplay:10.37,2013-04-04 22:56:00,
2013-04-05 01:01:00,32.7,29.8,28.64,SSW,210,2.3,2.4,89,0.00,CLR,FEW,0.00,0.0,WeatherDisplay:10.37,2013-04-04 23:01:00,
2013-04-05 01:07:00,32.7,29.8,28.64,SSW,210,2.3,2.4,89,0.00,CLR,FEW,0.00,0.0,WeatherDisplay:10.37,2013-04-04 23:07:00,
2013-04-05 01:12:00,32.7,29.8,28.64,SW,220,3.5,3.5,89,0.00,CLR,FEW,0.00,0.0,WeatherDisplay:10.37,2013-04-04 23:12:00,
2013-04-05 01:17:00,32.7,29.8,28.64,SSE,165,2.3,2.8,89,0.00,CLR,FEW,0.00,0.0,WeatherDisplay:10.37,2013-04-04 23:17:00,
2013-04-05 01:22:00,32.7,29.8,28.64,South,180,3.5,4.0,89,0.00,CLR,FEW,0.00,0.0,WeatherDisplay:10.37,2013-04-04 23:22:00,
2013-04-05 01:27:00,32.7,29.8,28.64,South,185,2.3,2.3,89,0.00,CLR,FEW,0.00,0.0,WeatherDisplay:10.37,2013-04-04 23:27:00,
2013-04-05 01:32:00,32.5,29.7,28.64,South,190,3.5,3.5,89,0.00,CLR,FEW,0.00,0.0,WeatherDisplay:10.37,2013-04-04 23:32:00,
2013-04-05 01:37:00,32.5,29.7,28.64,South,190,3.5,3.5,89,0.00,CLR,FEW,0.00,0.0,WeatherDisplay:10.37,2013-04-04 23:37:00,
2013-04-05 01:42:00,32.5,29.7,28.64,South,170,5.8,5.8,89,0.00,CLR,FEW,0.00,0.0,WeatherDisplay:10.37,2013-04-04 23:42:00,
2013-04-05 01:47:00,32.5,29.7,28.64,SSE,165,2.3,2.4,89,0.00,CLR,FEW,0.00,0.0,WeatherDisplay:10.37,2013-04-04 23:47:00,
2013-04-05 01:52:00,32.5,29.7,28.64,SSW,195,4.6,4.6,89,0.00,CLR,FEW,0.00,0.0,WeatherDisplay:10.37,2013-04-04 23:52:00,
2013-04-05 01:57:00,32.5,29.7,28.64,SSE,155,2.3,2.6,89,0.00,CLR,FEW,0.00,0.0,WeatherDisplay:10.37,2013-04-04 23:57:00,
2013-04-05 02:02:00,32.5,29.7,28.64,ENE,60,3.5,3.8,89,0.00,CLR,FEW,0.00,0.0,WeatherDisplay:10.37,2013-04-05 00:02:00,
2013-04-05 02:07:00,32.5,29.7,28.64,SSE,150,2.3,2.3,89,0.00,CLR,FEW,0.00,0.0,WeatherDisplay:10.37,2013-04-05 00:07:00,
2013-04-05 02:12:00,32.5,29.7,28.64,SSE,150,2.3,2.3,89,0.00,CLR,FEW,0.00,0.0,WeatherDisplay:10.37,2013-04-05 00:12:00,
2013-04-05 02:17:00,32.5,29.7,28.64,SE,130,2.3,2.6,89,0.00,CLR,FEW,0.00,0.0,WeatherDisplay:10.37,2013-04-05 00:17:00,
2013-04-05 02:22:00,32.5,29.7,28.64,SSE,155,3.5,3.8,89,0.00,CLR,FEW,0.00,0.0,WeatherDisplay:10.37,2013-04-05 00:22:00,
2013-04-05 02:27:00,32.5,29.7,28.61,South,180,4.6,4.6,89,0.00,CLR,FEW,0.00,0.0,WeatherDisplay:10.37,2013-04-05 00:27:00,
2013-04-05 02:32:00,32.5,29.7,28.61,SE,130,5.8,5.8,89,0.00,CLR,FEW,0.00,0.0,WeatherDisplay:10.37,2013-04-05 00:32:00,
2013-04-05 02:37:00,32.5,29.7,28.61,SE,130,5.8,5.8,89,0.00,CLR,FEW,0.00,0.0,WeatherDisplay:10.37,2013-04-05 00:37:00,
2013-04-05 02:42:00,32.4,29.5,28.61,NE,55,1.1,1.5,89,0.00,CLR,FEW,0.00,0.0,WeatherDisplay:10.37,2013-04-05 00:42:00,
2013-04-05 02:47:00,32.5,29.7,28.61,SSW,200,5.8,5.8,89,0.00,CLR,FEW,0.00,0.0,WeatherDisplay:10.37,2013-04-05 00:47:00,
2013-04-05 02:52:00,32.5,29.9,28.61,South,170,3.5,3.5,90,0.00,CLR,FEW,0.00,0.0,WeatherDisplay:10.37,2013-04-05 00:52:00,
2013-04-05 02:57:00,32.4,29.8,28.61,SSE,165,2.3,2.4,90,0.00,CLR,FEW,0.00,0.0,WeatherDisplay:10.37,2013-04-05 00:57:00,
2013-04-05 03:02:00,32.5,29.9,28.61,SSW,205,4.6,5.1,90,0.00,CLR,FEW,0.00,0.0,WeatherDisplay:10.37,2013-04-05 01:02:00,
2013-04-05 03:07:00,32.5,29.9,28.61,SE,140,4.6,4.6,90,0.00,CLR,FEW,0.00,0.0,WeatherDisplay:10.37,2013-04-05 01:07:00,
2013-04-05 03:12:00,32.5,29.9,28.61,SE,140,4.6,4.6,90,0.00,CLR,FEW,0.00,0.0,WeatherDisplay:10.37,2013-04-05 01:12:00,
2013-04-05 03:17:00,32.5,29.9,28.58,South,185,4.6,4.6,90,0.00,CLR,FEW,0.00,0.0,WeatherDisplay:10.37,2013-04-05 01:17:00,
2013-04-05 03:22:00,32.4,29.8,28.58,SSW,200,3.5,3.5,90,0.00,CLR,FEW,0.00,0.0,WeatherDisplay:10.37,2013-04-05 01:22:00,
2013-04-05 03:27:00,32.5,29.9,28.61,SE,145,4.6,4.6,90,0.00,CLR,FEW,0.00,0.0,WeatherDisplay:10.37,2013-04-05 01:27:00,
2013-04-05 03:32:00,32.5,29.9,28.61,SSE,165,3.5,3.5,90,0.00,CLR,FEW,0.00,0.0,WeatherDisplay:10.37,2013-04-05 01:32:00,
2013-04-05 03:37:00,32.5,29.9,28.61,SSE,165,3.5,3.5,90,0.00,CLR,FEW,0.00,0.0,WeatherDisplay:10.37,2013-04-05 01:37:00,
2013-04-05 03:42:00,32.4,29.8,28.61,South,175,2.3,2.3,90,0.00,CLR,FEW,0.00,0.0,WeatherDisplay:10.37,2013-04-05 01:42:00,
2013-04-05 03:47:00,32.5,29.9,28.58,SSE,165,4.6,4.6,90,0.00,CLR,FEW,0.00,0.0,WeatherDisplay:10.37,2013-04-05 01:47:00,
2013-04-05 03:53:00,32.5,29.9,28.58,SSE,150,2.3,2.6,90,0.00,CLR,FEW,0.00,0.0,WeatherDisplay:10.37,2013-04-05 01:53:00,
2013-04-05 03:58:00,32.5,29.9,28.61,South,170,3.5,3.5,90,0.00,CLR,FEW,0.00,0.0,WeatherDisplay:10.37,2013-04-05 01:58:00,
2013-04-05 04:03:00,32.5,29.9,28.61,SSE,165,3.5,3.8,90,0.00,CLR,FEW,0.00,0.0,WeatherDisplay:10.37,2013-04-05 02:03:00,
2013-04-05 04:08:00,32.5,29.9,28.61,South,175,5.8,5.8,90,0.00,CLR,FEW,0.00,0.0,WeatherDisplay:10.37,2013-04-05 02:08:00,
2013-04-05 04:13:00,32.5,29.9,28.58,South,180,4.6,4.6,90,0.00,CLR,FEW,0.00,0.0,WeatherDisplay:10.37,2013-04-05 02:13:00,
2013-04-05 04:18:00,32.5,29.9,28.58,South,180,4.6,4.6,90,0.00,CLR,FEW,0.00,0.0,WeatherDisplay:10.37,2013-04-05 02:18:00,
2013-04-05 04:23:00,32.5,29.9,28.58,SSW,205,1.1,1.5,90,0.00,CLR,FEW,0.00,0.0,WeatherDisplay:10.37,2013-04-05 02:23:00,
2013-04-05 04:28:00,32.5,29.9,28.58,SSW,210,2.3,2.3,90,0.00,CLR,FEW,0.00,0.0,WeatherDisplay:10.37,2013-04-05 02:28:00,
2013-04-05 04:33:00,32.5,29.9,28.58,SSW,205,2.3,2.3,90,0.00,CLR,FEW,0.00,0.0,WeatherDisplay:10.37,2013-04-05 02:33:00,
2013-04-05 04:38:00,32.7,30.1,28.58,SSE,150,3.5,3.5,90,0.00,CLR,FEW,0.00,0.0,WeatherDisplay:10.37,2013-04-05 02:38:00,
2013-04-05 04:43:00,32.7,30.1,28.58,SSE,150,3.5,3.5,90,0.00,CLR,FEW,0.00,0.0,WeatherDisplay:10.37,2013-04-05 02:43:00,
2013-04-05 04:48:00,32.7,30.1,28.58,SSW,210,5.8,5.8,90,0.00,CLR,FEW,0.00,0.0,WeatherDisplay:10.37,2013-04-05 02:48:00,
2013-04-05 04:53:00,32.7,30.1,28.58,SSW,200,4.6,4.6,90,0.00,CLR,FEW,0.00,0.0,WeatherDisplay:10.37,2013-04-05 02:53:00,
2013-04-05 04:58:00,32.7,30.1,28.58,SSE,165,4.6,4.6,90,0.00,CLR,FEW,0.00,0.0,WeatherDisplay:10.37,2013-04-05 02:58:00,
2013-04-05 05:03:00,32.7,30.1,28.58,WSW,250,5.8,5.8,90,0.00,CLR,FEW,0.00,0.0,WeatherDisplay:10.37,2013-04-05 03:03:00,
2013-04-05 05:08:00,32.7,30.1,28.58,SSE,155,6.9,6.9,90,0.00,CLR,FEW,0.00,0.0,WeatherDisplay:10.37,2013-04-05 03:08:00,
2013-04-05 05:13:00,32.7,30.1,28.56,SSW,200,5.8,6.2,90,0.00,CLR,FEW,0.00,0.0,WeatherDisplay:10.37,2013-04-05 03:13:00,
2013-04-05 05:18:00,32.7,30.1,28.56,SSW,200,5.8,6.2,90,0.00,CLR,FEW,0.00,0.0,WeatherDisplay:10.37,2013-04-05 03:18:00,
2013-04-05 05:23:00,32.7,30.1,28.56,South,175,4.6,5.1,90,0.00,CLR,FEW,0.00,0.0,WeatherDisplay:10.37,2013-04-05 03:23:00,
2013-04-05 05:28:00,32.7,30.1,28.58,SSW,210,5.8,5.8,90,0.00,CLR,FEW,0.00,0.0,WeatherDisplay:10.37,2013-04-05 03:28:00,
2013-04-05 05:33:00,32.7,30.1,28.58,SSE,155,4.6,4.9,90,0.00,CLR,FEW,0.00,0.0,WeatherDisplay:10.37,2013-04-05 03:33:00,
2013-04-05 05:38:00,32.7,30.1,28.58,South,190,6.9,6.9,90,0.00,CLR,FEW,0.00,0.0,WeatherDisplay:10.37,2013-04-05 03:38:00,
2013-04-05 05:43:00,32.7,30.1,28.58,South,190,6.9,6.9,90,0.00,CLR,FEW,0.00,0.0,WeatherDisplay:10.37,2013-04-05 03:43:00,
2013-04-05 05:48:00,32.7,29.8,28.56,South,180,8.1,8.1,89,0.00,CLR,FEW,0.00,0.0,WeatherDisplay:10.37,2013-04-05 03:48:00,
2013-04-05 05:53:00,32.9,30.0,28.56,SSW,205,6.9,7.3,89,0.00,CLR,FEW,0.00,0.0,WeatherDisplay:10.37,2013-04-05 03:53:00,
2013-04-05 05:58:00,32.9,30.0,28.56,SSW,200,8.1,8.3,89,0.00,CLR,FEW,0.00,0.0,WeatherDisplay:10.37,2013-04-05 03:58:00,
2013-04-05 06:00:00,32.9,30.0,28.56,SSW,202,8.0,8.0,89,0.00,CLR,FEW,0.00,0.0,WeatherDisplay:10.37,2013-04-05 04:00:00,
2013-04-05 06:05:00,32.7,29.8,28.56,South,180,10.4,10.4,89,0.00,OVC,FEW,0.00,0.0,WeatherDisplay:10.37,2013-04-05 04:05:00,
2013-04-05 06:10:00,32.7,29.8,28.56,SSW,210,6.9,6.9,89,0.00,OVC,FEW,0.00,0.0,WeatherDisplay:10.37,2013-04-05 04:10:00,
2013-04-05 06:15:00,32.7,29.8,28.56,South,185,5.8,5.8,89,0.00,OVC,FEW,0.00,0.0,WeatherDisplay:10.37,2013-04-05 04:15:00,
2013-04-05 06:20:00,32.7,29.8,28.56,SSE,165,8.1,8.1,89,0.00,OVC,FEW,0.00,0.0,WeatherDisplay:10.37,2013-04-05 04:20:00,
2013-04-05 06:25:00,32.7,29.8,28.56,SSE,165,8.1,8.1,89,0.00,OVC,FEW,0.00,0.0,WeatherDisplay:10.37,2013-04-05 04:25:00,
2013-04-05 06:30:00,32.7,29.8,28.56,South,185,6.9,6.9,89,0.00,OVC,FEW,0.00,0.0,WeatherDisplay:10.37,2013-04-05 04:30:00,
2013-04-05 06:35:00,32.9,30.0,28.56,SSW,195,6.9,7.1,89,0.00,OVC,FEW,0.00,0.0,WeatherDisplay:10.37,2013-04-05 04:35:00,
2013-04-05 06:40:00,32.7,29.8,28.56,SSW,205,4.6,4.9,89,0.00,OVC,FEW,0.00,0.0,WeatherDisplay:10.37,2013-04-05 04:40:00,
2013-04-05 06:45:00,32.7,29.8,28.56,SW,230,4.6,4.6,89,0.00,OVC,FEW,0.00,0.0,WeatherDisplay:10.37,2013-04-05 04:45:00,
2013-04-05 06:50:00,32.7,29.8,28.56,SSW,205,4.6,4.9,89,0.00,OVC,FEW,0.00,0.0,WeatherDisplay:10.37,2013-04-05 04:50:00,
2013-04-05 06:55:00,32.7,29.8,28.56,SSW,205,4.6,4.9,89,0.00,OVC,FEW,0.00,0.0,WeatherDisplay:10.37,2013-04-05 04:55:00,
2013-04-05 07:00:00,32.7,29.8,28.56,SSW,205,6.9,6.9,89,0.00,OVC,FEW,0.00,0.0,WeatherDisplay:10.37,2013-04-05 05:00:00,
2013-04-05 07:05:00,32.7,29.8,28.56,SSW,210,2.3,2.6,89,0.00,OVC,FEW,0.00,0.0,WeatherDisplay:10.37,2013-04-05 05:05:00,
2013-04-05 07:10:00,32.7,29.8,28.56,South,170,3.5,3.5,89,0.00,OVC,FEW,0.00,0.0,WeatherDisplay:10.37,2013-04-05 05:10:00,
2013-04-05 07:15:00,32.7,29.8,28.56,SSW,195,3.5,4.0,89,0.00,OVC,FEW,0.00,0.0,WeatherDisplay:10.37,2013-04-05 05:15:00,
2013-04-05 07:20:00,32.7,29.8,28.56,SSW,200,4.6,4.6,89,0.00,OVC,FEW,0.00,0.0,WeatherDisplay:10.37,2013-04-05 05:20:00,
2013-04-05 07:26:00,32.7,29.8,28.56,SSW,200,4.6,4.6,89,0.00,OVC,FEW,0.00,0.0,WeatherDisplay:10.37,2013-04-05 05:26:00,
2013-04-05 07:31:00,32.7,29.8,28.56,South,185,4.6,4.6,89,0.00,OVC,FEW,0.00,0.0,WeatherDisplay:10.37,2013-04-05 05:31:00,
2013-04-05 07:36:00,32.9,30.0,28.56,SSW,210,6.9,6.9,89,0.00,OVC,FEW,0.00,0.0,WeatherDisplay:10.37,2013-04-05 05:36:00,
2013-04-05 07:41:00,32.9,30.0,28.56,SSE,155,5.8,5.8,89,0.00,OVC,FEW,0.00,0.0,WeatherDisplay:10.37,2013-04-05 05:41:00,
2013-04-05 07:46:00,32.7,29.8,28.56,SE,145,5.8,5.8,89,0.00,OVC,FEW,0.00,0.0,WeatherDisplay:10.37,2013-04-05 05:46:00,
2013-04-05 07:51:00,32.7,29.8,28.56,South,175,5.8,6.0,89,0.00,OVC,FEW,0.00,0.0,WeatherDisplay:10.37,2013-04-05 05:51:00,
2013-04-05 07:56:00,32.7,29.8,28.56,South,175,5.8,6.0,89,0.00,OVC,FEW,0.00,0.0,WeatherDisplay:10.37,2013-04-05 05:56:00,
2013-04-05 08:01:00,32.9,30.0,28.56,South,170,5.8,6.0,89,0.00,OVC,FEW,0.00,0.0,WeatherDisplay:10.37,2013-04-05 06:01:00,
2013-04-05 08:06:00,33.1,30.2,28.56,SE,145,5.8,6.0,89,0.00,OVC,FEW,0.00,0.0,WeatherDisplay:10.37,2013-04-05 06:06:00,
2013-04-05 08:11:00,33.1,30.2,28.56,South,175,6.9,6.9,89,0.00,OVC,FEW,0.00,0.0,WeatherDisplay:10.37,2013-04-05 06:11:00,
2013-04-05 08:16:00,33.1,30.2,28.58,South,185,5.8,5.8,89,0.00,OVC,FEW,0.00,0.0,WeatherDisplay:10.37,2013-04-05 06:16:00,
2013-04-05 08:21:00,33.1,30.2,28.58,South,180,8.1,8.1,89,0.00,OVC,FEW,0.00,0.0,WeatherDisplay:10.37,2013-04-05 06:21:00,
2013-04-05 08:26:00,33.1,30.2,28.58,South,180,8.1,8.1,89,0.00,OVC,FEW,0.00,0.0,WeatherDisplay:10.37,2013-04-05 06:26:00,
2013-04-05 08:31:00,33.1,30.2,28.56,SSW,205,8.1,8.3,89,0.00,OVC,FEW,0.00,0.0,WeatherDisplay:10.37,2013-04-05 06:31:00,
2013-04-05 08:36:00,33.1,30.2,28.56,SW,215,6.9,6.9,89,0.00,OVC,FEW,0.00,0.0,WeatherDisplay:10.37,2013-04-05 06:36:00,
2013-04-05 08:41:00,33.1,30.2,28.56,South,170,8.1,8.1,89,0.00,OVC,FEW,0.00,0.0,WeatherDisplay:10.37,2013-04-05 06:41:00,
2013-04-05 08:46:00,33.3,30.4,28.58,South,190,6.9,6.9,89,0.00,OVC,FEW,0.00,0.0,WeatherDisplay:10.37,2013-04-05 06:46:00,
2013-04-05 08:51:00,33.3,30.4,28.58,SSE,165,5.8,5.8,89,0.00,OVC,FEW,0.00,0.0,WeatherDisplay:10.37,2013-04-05 06:51:00,
2013-04-05 08:56:00,33.3,30.4,28.58,SSE,165,5.8,5.8,89,0.00,OVC,FEW,0.00,0.0,WeatherDisplay:10.37,2013-04-05 06:56:00,
2013-04-05 09:01:00,33.4,30.3,28.56,SSW,205,6.9,6.9,88,0.00,OVC,FEW,0.00,0.0,WeatherDisplay:10.37,2013-04-05 07:01:00,
2013-04-05 09:06:00,33.4,30.3,28.56,SSW,205,6.9,6.9,88,0.00,OVC,FEW,0.00,0.0,WeatherDisplay:10.37,2013-04-05 07:06:00,
2013-04-05 09:11:00,33.6,30.4,28.56,South,175,6.9,6.9,88,0.00,OVC,FEW,0.00,0.0,WeatherDisplay:10.37,2013-04-05 07:11:00,
2013-04-05 09:17:00,33.6,30.4,28.56,SSE,150,8.1,8.1,88,0.00,OVC,FEW,0.00,0.0,WeatherDisplay:10.37,2013-04-05 07:17:00,
2013-04-05 09:22:00,33.8,30.3,28.56,South,170,9.2,9.2,87,0.00,OVC,FEW,0.00,0.0,WeatherDisplay:10.37,2013-04-05 07:22:00,
2013-04-05 09:27:00,34.0,30.5,28.56,South,190,8.1,8.5,87,0.00,OVC,FEW,0.00,0.0,WeatherDisplay:10.37,2013-04-05 07:27:00,
2013-04-05 09:32:00,34.0,30.5,28.56,South,190,8.1,8.5,87,0.00,OVC,FEW,0.00,0.0,WeatherDisplay:10.37,2013-04-05 07:32:00,
2013-04-05 09:37:00,34.0,30.5,28.56,South,170,8.1,8.1,87,0.00,OVC,FEW,0.00,0.0,WeatherDisplay:10.37,2013-04-05 07:37:00,
2013-04-05 09:42:00,34.2,30.7,28.56,South,190,8.1,8.3,87,0.00,OVC,FEW,0.00,0.0,WeatherDisplay:10.37,2013-04-05 07:42:00,
2013-04-05 09:47:00,34.2,30.7,28.56,SSE,160,6.9,6.9,87,0.00,OVC,FEW,0.00,0.0,WeatherDisplay:10.37,2013-04-05 07:47:00,
2013-04-05 09:52:00,34.2,30.4,28.56,SW,225,9.2,9.2,86,0.00,OVC,FEW,0.00,0.0,WeatherDisplay:10.37,2013-04-05 07:52:00,
2013-04-05 09:57:00,34.3,30.6,28.58,South,180,9.2,9.2,86,0.00,OVC,FEW,0.00,0.0,WeatherDisplay:10.37,2013-04-05 07:57:00,
2013-04-05 10:02:00,34.3,30.6,28.58,SE,130,6.9,7.0,86,0.00,OVC,FEW,0.00,0.0,WeatherDisplay:10.37,2013-04-05 08:02:00,
2013-04-05 10:07:00,34.3,30.6,28.58,South,175,9.2,9.2,86,0.00,OVC,FEW,0.00,0.0,WeatherDisplay:10.37,2013-04-05 08:07:00,
2013-04-05 10:12:00,34.3,30.6,28.58,South,175,9.2,9.2,86,0.00,OVC,FEW,0.00,0.0,WeatherDisplay:10.37,2013-04-05 08:12:00,
2013-04-05 10:17:00,34.7,30.9,28.56,SSW,195,5.8,6.2,86,0.00,OVC,FEW,0.00,0.0,WeatherDisplay:10.37,2013-04-05 08:17:00,
2013-04-05 10:22:00,34.9,30.8,28.56,SSE,160,6.9,7.1,85,0.00,OVC,FEW,0.00,0.0,WeatherDisplay:10.37,2013-04-05 08:22:00,
2013-04-05 10:27:00,34.9,30.8,28.56,SSE,155,8.1,8.1,85,0.00,OVC,FEW,0.00,0.0,WeatherDisplay:10.37,2013-04-05 08:27:00,
2013-04-05 10:32:00,34.9,30.8,28.56,SSE,165,10.4,10.4,85,0.00,OVC,FEW,0.00,0.0,WeatherDisplay:10.37,2013-04-05 08:32:00,
2013-04-05 10:37:00,34.9,30.8,28.56,SSE,165,10.4,10.4,85,0.00,OVC,FEW,0.00,0.0,WeatherDisplay:10.37,2013-04-05 08:37:00,
2013-04-05 10:42:00,34.9,30.8,28.56,SSE,165,10.4,10.4,85,0.00,OVC,FEW,0.00,0.0,WeatherDisplay:10.37,2013-04-05 08:42:00,
2013-04-05 10:47:00,35.2,31.2,28.56,SSE,150,9.2,9.2,85,0.00,OVC,FEW,0.00,0.0,WeatherDisplay:10.37,2013-04-05 08:47:00,
2013-04-05 10:52:00,35.2,30.9,28.56,SE,130,8.1,8.3,84,0.00,OVC,FEW,0.00,0.0,WeatherDisplay:10.37,2013-04-05 08:52:00,
2013-04-05 10:57:00,35.6,31.2,28.56,SSW,200,4.6,5.1,84,0.00,OVC,FEW,0.00,0.0,WeatherDisplay:10.37,2013-04-05 08:57:00,
2013-04-05 11:02:00,35.8,31.4,28.56,South,170,6.9,7.1,84,0.00,OVC,FEW,0.00,0.0,WeatherDisplay:10.37,2013-04-05 09:02:00,
2013-04-05 11:07:00,35.8,31.4,28.56,South,170,5.8,5.8,84,0.00,OVC,FEW,0.00,0.0,WeatherDisplay:10.37,2013-04-05 09:07:00,
2013-04-05 11:12:00,35.8,31.4,28.56,South,170,5.8,5.8,84,0.00,OVC,FEW,0.00,0.0,WeatherDisplay:10.37,2013-04-05 09:12:00,
2013-04-05 11:18:00,35.6,30.9,28.56,SSW,195,10.4,10.5,83,0.00,OVC,FEW,0.00,0.0,WeatherDisplay:10.37,2013-04-05 09:18:00,
2013-04-05 11:23:00,35.8,31.1,28.56,South,185,9.2,9.2,83,0.00,OVC,FEW,0.00,0.0,WeatherDisplay:10.37,2013-04-05 09:23:00,
2013-04-05 11:28:00,35.8,31.1,28.58,SSE,150,11.5,12.1,83,0.00,OVC,FEW,0.00,0.0,WeatherDisplay:10.37,2013-04-05 09:28:00,
2013-04-05 11:33:00,36.0,31.3,28.58,SSW,210,10.4,10.7,83,0.00,OVC,FEW,0.00,0.0,WeatherDisplay:10.37,2013-04-05 09:33:00,
2013-04-05 11:38:00,36.0,31.3,28.58,SSE,165,11.5,11.5,83,0.00,OVC,FEW,0.00,0.0,WeatherDisplay:10.37,2013-04-05 09:38:00,
2013-04-05 11:43:00,36.0,31.3,28.58,SSE,165,11.5,11.5,83,0.00,OVC,FEW,0.00,0.0,WeatherDisplay:10.37,2013-04-05 09:43:00,
2013-04-05 11:48:00,36.1,31.5,28.58,South,190,6.9,7.3,83,0.00,OVC,FEW,0.00,0.0,WeatherDisplay:10.37,2013-04-05 09:48:00,
2013-04-05 11:53:00,36.0,31.3,28.58,South,170,9.2,9.4,83,0.00,OVC,FEW,0.00,0.0,WeatherDisplay:10.37,2013-04-05 09:53:00,
2013-04-05 11:58:00,36.1,31.5,28.58,South,180,5.8,6.0,83,0.00,OVC,FEW,0.00,0.0,WeatherDisplay:10.37,2013-04-05 09:58:00,
2013-04-05 12:03:00,36.1,31.2,28.58,South,170,8.1,8.1,82,0.00,OVC,FEW,0.00,0.0,WeatherDisplay:10.37,2013-04-05 10:03:00,
2013-04-05 12:08:00,36.1,31.2,28.58,SSE,155,9.2,9.2,82,0.00,OVC,FEW,0.00,0.0,WeatherDisplay:10.37,2013-04-05 10:08:00,
2013-04-05 12:13:00,36.5,31.5,28.56,SSW,200,6.9,6.9,82,0.00,OVC,FEW,0.00,0.0,WeatherDisplay:10.37,2013-04-05 10:13:00,
2013-04-05 12:18:00,36.5,31.5,28.56,SSW,200,6.9,6.9,82,0.00,OVC,FEW,0.00,0.0,WeatherDisplay:10.37,2013-04-05 10:18:00,
2013-04-05 12:23:00,36.9,31.9,28.56,South,180,8.1,8.1,82,0.00,OVC,FEW,0.00,0.0,WeatherDisplay:10.37,2013-04-05 10:23:00,
2013-04-05 12:28:00,36.9,31.6,28.58,South,175,9.2,9.4,81,0.00,OVC,FEW,0.00,0.0,WeatherDisplay:10.37,2013-04-05 10:28:00,
2013-04-05 12:33:00,37.0,31.8,28.58,South,170,8.1,8.3,81,0.00,OVC,FEW,0.00,0.0,WeatherDisplay:10.37,2013-04-05 10:33:00,
2013-04-05 12:38:00,37.0,31.8,28.58,South,180,8.1,8.5,81,0.00,OVC,FEW,0.00,0.0,WeatherDisplay:10.37,2013-04-05 10:38:00,
2013-04-05 12:43:00,37.0,31.8,28.58,South,180,8.1,8.5,81,0.00,OVC,FEW,0.00,0.0,WeatherDisplay:10.37,2013-04-05 10:43:00,
2013-04-05 12:48:00,37.0,31.8,28.56,SSE,155,5.8,5.8,81,0.00,OVC,FEW,0.00,0.0,WeatherDisplay:10.37,2013-04-05 10:48:00,
2013-04-05 12:53:00,36.9,31.3,28.56,South,170,8.1,8.1,80,0.00,OVC,FEW,0.00,0.0,WeatherDisplay:10.37,2013-04-05 10:53:00,
2013-04-05 12:58:00,37.0,31.4,28.56,South,175,5.8,6.2,80,0.00,OVC,FEW,0.00,0.0,WeatherDisplay:10.37,2013-04-05 10:58:00,
2013-04-05 13:03:00,37.0,31.4,28.56,South,170,8.1,8.3,80,0.00,OVC,FEW,0.00,0.0,WeatherDisplay:10.37,2013-04-05 11:03:00,
2013-04-05 13:08:00,36.9,31.3,28.56,SSE,150,9.2,9.8,80,0.00,OVC,FEW,0.00,0.0,WeatherDisplay:10.37,2013-04-05 11:08:00,
2013-04-05 13:13:00,37.2,31.6,28.56,South,175,9.2,9.8,80,0.00,OVC,FEW,0.00,0.0,WeatherDisplay:10.37,2013-04-05 11:13:00,
2013-04-05 13:18:00,37.2,31.6,28.56,South,175,9.2,9.8,80,0.00,OVC,FEW,0.00,0.0,WeatherDisplay:10.37,2013-04-05 11:18:00,
2013-04-05 13:23:00,37.2,31.3,28.56,South,175,6.9,6.9,79,0.00,OVC,FEW,0.00,0.0,WeatherDisplay:10.37,2013-04-05 11:23:00,
2013-04-05 13:28:00,37.2,31.3,28.56,SSE,150,9.2,9.2,79,0.00,OVC,FEW,0.00,0.0,WeatherDisplay:10.37,2013-04-05 11:28:00,
2013-04-05 13:33:00,37.2,31.3,28.56,SSE,165,8.1,8.3,79,0.00,OVC,FEW,0.00,0.0,WeatherDisplay:10.37,2013-04-05 11:33:00,
2013-04-05 13:38:00,37.6,32.0,28.56,SSE,160,5.8,6.0,80,0.00,OVC,FEW,0.00,0.0,WeatherDisplay:10.37,2013-04-05 11:38:00,
2013-04-05 13:43:00,37.6,32.0,28.56,SSE,160,5.8,6.0,80,0.00,OVC,FEW,0.00,0.0,WeatherDisplay:10.37,2013-04-05 11:43:00,
2013-04-05 13:48:00,37.2,31.3,28.56,South,180,8.1,8.1,79,0.00,OVC,FEW,0.00,0.0,WeatherDisplay:10.37,2013-04-05 11:48:00,
2013-04-05 13:53:00,37.2,31.6,28.56,SE,130,9.2,9.2,80,0.00,OVC,FEW,0.00,0.0,WeatherDisplay:10.37,2013-04-05 11:53:00,
2013-04-05 13:58:00,37.4,31.8,28.56,SSW,195,8.1,8.1,80,0.00,OVC,FEW,0.00,0.0,WeatherDisplay:10.37,2013-04-05 11:58:00,
2013-04-05 14:03:00,37.2,31.6,28.56,ESE,105,6.9,7.3,80,0.00,OVC,FEW,0.00,0.0,WeatherDisplay:10.37,2013-04-05 12:03:00,
2013-04-05 14:08:00,37.4,31.8,28.56,South,180,8.1,8.1,80,0.00,OVC,FEW,0.00,0.0,WeatherDisplay:10.37,2013-04-05 12:08:00,
2013-04-05 14:13:00,37.4,31.8,28.56,SSW,200,9.2,9.8,80,0.00,OVC,FEW,0.00,0.0,WeatherDisplay:10.37,2013-04-05 12:13:00,
2013-04-05 14:18:00,37.4,31.8,28.56,SSW,200,9.2,9.8,80,0.00,OVC,FEW,0.00,0.0,WeatherDisplay:10.37,2013-04-05 12:18:00,
2013-04-05 14:23:00,37.2,31.6,28.56,South,175,8.1,8.1,80,0.00,OVC,FEW,0.00,0.0,WeatherDisplay:10.37,2013-04-05 12:23:00,
2013-04-05 14:29:00,37.4,31.8,28.56,SSE,165,4.6,4.9,80,0.00,OVC,FEW,0.00,0.0,WeatherDisplay:10.37,2013-04-05 12:29:00,
2013-04-05 14:34:00,37.4,31.8,28.56,South,180,5.8,6.0,80,0.00,OVC,FEW,0.00,0.0,WeatherDisplay:10.37,2013-04-05 12:34:00,
2013-04-05 14:39:00,37.2,31.3,28.56,SE,135,6.9,7.3,79,0.00,OVC,FEW,0.00,0.0,WeatherDisplay:10.37,2013-04-05 12:39:00,
2013-04-05 14:45:00,37.6,31.7,28.56,ENE,65,5.8,5.8,79,0.00,OVC,FEW,0.00,0.0,WeatherDisplay:10.37,2013-04-05 12:45:00,
2013-04-05 14:50:00,37.4,31.5,28.56,East,100,9.2,9.2,79,0.00,OVC,FEW,0.00,0.0,WeatherDisplay:10.37,2013-04-05 12:50:00,
2013-04-05 14:55:00,37.4,31.5,28.56,East,100,9.2,9.2,79,0.00,OVC,FEW,0.00,0.0,WeatherDisplay:10.37,2013-04-05 12:55:00,
2013-04-05 15:00:00,37.6,31.7,28.56,SSW,205,4.6,4.9,79,0.00,OVC,FEW,0.00,0.0,WeatherDisplay:10.37,2013-04-05 13:00:00,
2013-04-05 15:05:00,37.6,31.7,28.56,SSE,160,9.2,9.2,79,0.00,OVC,FEW,0.00,0.0,WeatherDisplay:10.37,2013-04-05 13:05:00,
2013-04-05 15:10:00,37.4,31.5,28.56,SSE,165,6.9,7.3,79,0.00,OVC,FEW,0.00,0.0,WeatherDisplay:10.37,2013-04-05 13:10:00,
2013-04-05 15:15:00,37.6,31.7,28.56,SSE,155,5.8,6.0,79,0.00,OVC,FEW,0.00,0.0,WeatherDisplay:10.37,2013-04-05 13:15:00,
2013-04-05 15:20:00,37.6,31.7,28.56,SSW,195,5.8,5.8,79,0.00,OVC,FEW,0.00,0.0,WeatherDisplay:10.37,2013-04-05 13:20:00,
2013-04-05 15:25:00,37.6,31.7,28.56,SSW,195,5.8,5.8,79,0.00,OVC,FEW,0.00,0.0,WeatherDisplay:10.37,2013-04-05 13:25:00,
2013-04-05 15:30:00,37.6,31.3,28.56,SSE,160,6.9,6.9,78,0.00,OVC,FEW,0.00,0.0,WeatherDisplay:10.37,2013-04-05 13:30:00,
2013-04-05 15:35:00,37.6,31.3,28.56,SSE,165,6.9,6.9,78,0.00,OVC,FEW,0.00,0.0,WeatherDisplay:10.37,2013-04-05 13:35:00,
2013-04-05 15:40:00,37.8,31.5,28.56,SW,220,5.8,5.8,78,0.00,OVC,FEW,0.00,0.0,WeatherDisplay:10.37,2013-04-05 13:40:00,
2013-04-05 15:45:00,37.6,31.3,28.56,SW,215,5.8,5.8,78,0.00,OVC,FEW,0.00,0.0,WeatherDisplay:10.37,2013-04-05 13:45:00,
2013-04-05 15:50:00,37.9,31.7,28.56,SSE,155,5.8,6.0,78,0.00,OVC,FEW,0.00,0.0,WeatherDisplay:10.37,2013-04-05 13:50:00,
2013-04-05 15:55:00,37.9,31.7,28.56,SSE,155,5.8,6.0,78,0.00,OVC,FEW,0.00,0.0,WeatherDisplay:10.37,2013-04-05 13:55:00,
2013-04-05 16:00:00,37.8,31.5,28.56,SSW,205,5.8,5.8,78,0.00,OVC,FEW,0.00,0.0,WeatherDisplay:10.37,2013-04-05 14:00:00,
2013-04-05 16:05:00,37.9,31.7,28.56,SSW,205,4.6,5.1,78,0.00,OVC,FEW,0.00,0.0,WeatherDisplay:10.37,2013-04-05 14:05:00,
2013-04-05 16:10:00,37.8,31.5,28.56,South,185,6.9,7.3,78,0.00,OVC,FEW,0.00,0.0,WeatherDisplay:10.37,2013-04-05 14:10:00,
2013-04-05 16:15:00,37.8,31.5,28.56,South,185,6.9,7.3,78,0.00,OVC,FEW,0.00,0.0,WeatherDisplay:10.37,2013-04-05 14:15:00,
2013-04-05 16:20:00,37.8,31.5,28.56,SE,145,4.6,4.6,78,0.00,OVC,FEW,0.00,0.0,WeatherDisplay:10.37,2013-04-05 14:20:00,
2013-04-05 16:25:00,37.8,31.5,28.56,SE,145,4.6,4.6,78,0.00,OVC,FEW,0.00,0.0,WeatherDisplay:10.37,2013-04-05 14:25:00,
2013-04-05 16:32:00,37.6,31.3,28.56,South,185,5.8,6.0,78,0.00,OVC,FEW,0.00,0.0,WeatherDisplay:10.37,2013-04-05 14:32:00,
2013-04-05 16:37:00,37.6,31.3,28.56,South,185,5.8,6.0,78,0.00,OVC,FEW,0.00,0.0,WeatherDisplay:10.37,2013-04-05 14:37:00,
2013-04-05 16:42:00,37.6,31.3,28.56,SSE,165,5.8,5.8,78,0.00,OVC,FEW,0.00,0.0,WeatherDisplay:10.37,2013-04-05 14:42:00,
2013-04-05 16:47:00,37.6,31.7,28.56,South,170,9.2,9.4,79,0.00,OVC,FEW,0.00,0.0,WeatherDisplay:10.37,2013-04-05 14:47:00,
2013-04-05 16:52:00,37.6,31.7,28.56,SSE,150,4.6,4.6,79,0.00,OVC,FEW,0.00,0.0,WeatherDisplay:10.37,2013-04-05 14:52:00,
2013-04-05 16:57:00,37.6,31.7,28.56,South,180,2.3,2.4,79,0.00,OVC,FEW,0.00,0.0,WeatherDisplay:10.37,2013-04-05 14:57:00,
2013-04-05 17:02:00,37.8,31.8,28.56,SSE,150,6.9,7.0,79,0.00,OVC,FEW,0.00,0.0,WeatherDisplay:10.37,2013-04-05 15:02:00,
2013-04-05 17:07:00,37.6,31.7,28.56,SE,140,4.6,4.6,79,0.00,OVC,FEW,0.00,0.0,WeatherDisplay:10.37,2013-04-05 15:07:00,
2013-04-05 17:12:00,37.6,31.7,28.56,SE,140,4.6,4.6,79,0.00,OVC,FEW,0.00,0.0,WeatherDisplay:10.37,2013-04-05 15:12:00,
2013-04-05 17:17:00,37.6,31.7,28.58,SE,145,3.5,3.8,79,0.00,OVC,FEW,0.00,0.0,WeatherDisplay:10.37,2013-04-05 15:17:00,
2013-04-05 17:22:00,37.6,31.7,28.58,South,185,2.3,2.4,79,0.00,OVC,FEW,0.00,0.0,WeatherDisplay:10.37,2013-04-05 15:22:00,
2013-04-05 17:27:00,37.6,31.7,28.58,SSE,165,5.8,6.2,79,0.00,OVC,FEW,0.00,0.0,WeatherDisplay:10.37,2013-04-05 15:27:00,
2013-04-05 17:33:00,37.4,31.5,28.58,South,190,8.1,8.1,79,0.00,OVC,FEW,0.00,0.0,WeatherDisplay:10.37,2013-04-05 15:33:00,
2013-04-05 17:38:00,37.4,31.5,28.58,South,190,8.1,8.1,79,0.00,OVC,FEW,0.00,0.0,WeatherDisplay:10.37,2013-04-05 15:38:00,
2013-04-05 17:43:00,37.4,31.8,28.58,South,175,5.8,5.8,80,0.00,OVC,FEW,0.00,0.0,WeatherDisplay:10.37,2013-04-05 15:43:00,
2013-04-05 17:48:00,37.4,31.8,28.58,South,175,6.9,6.9,80,0.00,OVC,FEW,0.00,0.0,WeatherDisplay:10.37,2013-04-05 15:48:00,
2013-04-05 17:53:00,37.4,31.8,28.58,ESE,115,5.8,6.0,80,0.00,OVC,FEW,0.00,0.0,WeatherDisplay:10.37,2013-04-05 15:53:00,
2013-04-05 17:58:00,37.2,31.3,28.58,South,185,4.6,4.9,79,0.00,OVC,FEW,0.00,0.0,WeatherDisplay:10.37,2013-04-05 15:58:00,
2013-04-05 18:03:00,37.2,31.3,28.58,SSE,150,3.5,3.8,79,0.00,OVC,FEW,0.00,0.0,WeatherDisplay:10.37,2013-04-05 16:03:00,
2013-04-05 18:08:00,37.0,31.1,28.58,North,350,8.1,8.1,79,0.00,OVC,FEW,0.00,0.0,WeatherDisplay:10.37,2013-04-05 16:08:00,
2013-04-05 18:13:00,37.0,31.1,28.58,North,350,8.1,8.1,79,0.00,OVC,FEW,0.00,0.0,WeatherDisplay:10.37,2013-04-05 16:13:00,
2013-04-05 18:18:00,36.9,31.0,28.58,NE,35,3.5,3.5,79,0.00,OVC,FEW,0.00,0.0,WeatherDisplay:10.37,2013-04-05 16:18:00,
2013-04-05 18:23:00,36.9,31.0,28.58,NE,35,3.5,3.5,79,0.00,OVC,FEW,0.00,0.0,WeatherDisplay:10.37,2013-04-05 16:23:00,
2013-04-05 18:28:00,36.9,31.0,28.58,West,280,4.6,5.1,79,0.00,OVC,FEW,0.00,0.0,WeatherDisplay:10.37,2013-04-05 16:28:00,
2013-04-05 18:33:00,36.9,31.0,28.58,ESE,115,8.1,8.1,79,0.00,OVC,FEW,0.00,0.0,WeatherDisplay:10.37,2013-04-05 16:33:00,
2013-04-05 18:38:00,36.9,31.0,28.58,SSE,160,3.5,3.5,79,0.00,OVC,FEW,0.00,0.0,WeatherDisplay:10.37,2013-04-05 16:38:00,
2013-04-05 18:43:00,36.9,31.0,28.58,SSE,160,3.5,3.5,79,0.00,OVC,FEW,0.00,0.0,WeatherDisplay:10.37,2013-04-05 16:43:00,
2013-04-05 18:48:00,36.9,31.3,28.58,East,95,9.2,9.8,80,0.00,OVC,FEW,0.00,0.0,WeatherDisplay:10.37,2013-04-05 16:48:00,
2013-04-05 18:53:00,36.7,31.1,28.58,NE,45,5.8,5.8,80,0.00,OVC,FEW,0.00,0.0,WeatherDisplay:10.37,2013-04-05 16:53:00,
2013-04-05 18:58:00,36.7,31.1,28.58,SW,235,1.1,1.5,80,0.00,OVC,FEW,0.00,0.0,WeatherDisplay:10.37,2013-04-05 16:58:00,
2013-04-05 19:03:00,36.5,30.9,28.58,SSE,160,6.9,7.3,80,0.00,OVC,FEW,0.00,0.0,WeatherDisplay:10.37,2013-04-05 17:03:00,
2013-04-05 19:08:00,36.5,30.9,28.58,SSE,155,3.5,3.8,80,0.00,OVC,FEW,0.00,0.0,WeatherDisplay:10.37,2013-04-05 17:08:00,
2013-04-05 19:13:00,36.3,30.7,28.61,South,170,3.5,4.0,80,0.00,OVC,FEW,0.00,0.0,WeatherDisplay:10.37,2013-04-05 17:13:00,
2013-04-05 19:18:00,36.3,30.7,28.61,South,170,3.5,4.0,80,0.00,OVC,FEW,0.00,0.0,WeatherDisplay:10.37,2013-04-05 17:18:00,
2013-04-05 19:23:00,36.3,30.7,28.61,South,170,3.5,4.0,80,0.00,OVC,FEW,0.00,0.0,WeatherDisplay:10.37,2013-04-05 17:23:00,
2013-04-05 19:28:00,36.0,30.7,28.58,SE,145,3.5,3.5,81,0.00,OVC,FEW,0.00,0.0,WeatherDisplay:10.37,2013-04-05 17:28:00,
2013-04-05 19:33:00,36.0,31.0,28.58,NE,50,4.6,4.9,82,0.00,OVC,FEW,0.00,0.0,WeatherDisplay:10.37,2013-04-05 17:33:00,
2013-04-05 19:39:00,35.8,30.8,28.58,SE,145,3.5,3.8,82,0.00,OVC,FEW,0.00,0.0,WeatherDisplay:10.37,2013-04-05 17:39:00,
2013-04-05 19:44:00,35.6,30.9,28.61,SE,140,4.6,4.6,83,0.00,OVC,FEW,0.00,0.0,WeatherDisplay:10.37,2013-04-05 17:44:00,
2013-04-05 19:49:00,35.6,30.9,28.61,SE,140,4.6,4.6,83,0.00,OVC,FEW,0.00,0.0,WeatherDisplay:10.37,2013-04-05 17:49:00,
2013-04-05 19:54:00,35.6,30.9,28.61,NE,50,4.6,4.9,83,0.00,OVC,FEW,0.00,0.0,WeatherDisplay:10.37,2013-04-05 17:54:00,
2013-04-05 19:59:00,35.4,30.8,28.61,SE,140,1.1,1.1,83,0.00,OVC,FEW,0.00,0.0,WeatherDisplay:10.37,2013-04-05 17:59:00,
2013-04-05 20:04:00,35.2,30.6,28.61,South,175,5.8,6.0,83,0.00,CLR,FEW,0.00,0.0,WeatherDisplay:10.37,2013-04-05 18:04:00,
2013-04-05 20:09:00,35.2,30.6,28.61,SE,145,3.5,3.5,83,0.00,CLR,FEW,0.00,0.0,WeatherDisplay:10.37,2013-04-05 18:09:00,
2013-04-05 20:15:00,35.2,30.6,28.61,SE,145,6.9,6.9,83,0.00,CLR,FEW,0.00,0.0,WeatherDisplay:10.37,2013-04-05 18:15:00,
2013-04-05 20:20:00,35.2,30.6,28.61,SE,145,6.9,6.9,83,0.00,CLR,FEW,0.00,0.0,WeatherDisplay:10.37,2013-04-05 18:20:00,
2013-04-05 20:25:00,35.2,30.6,28.61,SE,135,4.6,4.6,83,0.00,CLR,FEW,0.00,0.0,WeatherDisplay:10.37,2013-04-05 18:25:00,
2013-04-05 20:30:00,35.2,30.9,28.61,NE,50,2.3,2.3,84,0.00,CLR,FEW,0.00,0.0,WeatherDisplay:10.37,2013-04-05 18:30:00,
2013-04-05 20:35:00,35.2,30.9,28.61,East,85,4.6,4.7,84,0.00,CLR,FEW,0.00,0.0,WeatherDisplay:10.37,2013-04-05 18:35:00,
2013-04-05 20:40:00,35.2,30.9,28.61,SE,125,4.6,4.6,84,0.00,CLR,FEW,0.00,0.0,WeatherDisplay:10.37,2013-04-05 18:40:00,
2013-04-05 20:45:00,35.2,30.9,28.64,North,10,3.5,3.5,84,0.00,CLR,FEW,0.00,0.0,WeatherDisplay:10.37,2013-04-05 18:45:00,
2013-04-05 20:50:00,35.1,30.7,28.64,WNW,290,6.9,6.9,84,0.00,CLR,FEW,0.00,0.0,WeatherDisplay:10.37,2013-04-05 18:50:00,
2013-04-05 20:55:00,35.1,30.7,28.64,WNW,290,6.9,6.9,84,0.00,CLR,FEW,0.00,0.0,WeatherDisplay:10.37,2013-04-05 18:55:00,
2013-04-05 21:00:00,35.1,30.7,28.64,ESE,120,4.6,4.6,84,0.00,CLR,FEW,0.00,0.0,WeatherDisplay:10.37,2013-04-05 19:00:00,
2013-04-05 21:05:00,35.2,30.9,28.64,ENE,75,6.9,6.9,84,0.00,CLR,FEW,0.00,0.0,WeatherDisplay:10.37,2013-04-05 19:05:00,
2013-04-05 21:10:00,35.1,30.7,28.64,North,355,5.8,5.8,84,0.00,CLR,FEW,0.00,0.0,WeatherDisplay:10.37,2013-04-05 19:10:00,
2013-04-05 21:15:00,35.1,30.7,28.64,SSE,155,5.8,6.2,84,0.00,CLR,FEW,0.00,0.0,WeatherDisplay:10.37,2013-04-05 19:15:00,
2013-04-05 21:20:00,35.1,30.7,28.64,SE,125,6.9,7.0,84,0.00,CLR,FEW,0.00,0.0,WeatherDisplay:10.37,2013-04-05 19:20:00,
2013-04-05 21:25:00,35.1,30.7,28.64,SE,125,6.9,7.0,84,0.00,CLR,FEW,0.00,0.0,WeatherDisplay:10.37,2013-04-05 19:25:00,
2013-04-05 21:30:00,35.1,30.7,28.64,SE,135,8.1,8.3,84,0.00,CLR,FEW,0.00,0.0,WeatherDisplay:10.37,2013-04-05 19:30:00,
2013-04-05 21:35:00,35.1,30.7,28.64,SSE,155,4.6,5.1,84,0.00,CLR,FEW,0.00,0.0,WeatherDisplay:10.37,2013-04-05 19:35:00,
2013-04-05 21:40:00,35.1,30.7,28.64,South,190,3.5,3.8,84,0.00,CLR,FEW,0.00,0.0,WeatherDisplay:10.37,2013-04-05 19:40:00,
2013-04-05 21:45:00,34.9,30.8,28.64,East,95,3.5,3.5,85,0.00,CLR,FEW,0.00,0.0,WeatherDisplay:10.37,2013-04-05 19:45:00,
2013-04-05 21:50:00,34.9,30.8,28.64,ENE,65,3.5,3.5,85,0.00,CLR,FEW,0.00,0.0,WeatherDisplay:10.37,2013-04-05 19:50:00,
2013-04-05 21:56:00,34.9,30.8,28.64,ENE,65,3.5,3.5,85,0.00,CLR,FEW,0.00,0.0,WeatherDisplay:10.37,2013-04-05 19:56:00,
2013-04-05 22:01:00,34.9,30.8,28.64,East,85,4.6,4.6,85,0.00,CLR,FEW,0.00,0.0,WeatherDisplay:10.37,2013-04-05 20:01:00,
2013-04-05 22:06:00,34.9,30.8,28.64,South,170,3.5,3.5,85,0.00,CLR,FEW,0.00,0.0,WeatherDisplay:10.37,2013-04-05 20:06:00,
2013-04-05 22:11:00,34.9,30.8,28.64,South,170,3.5,3.5,85,0.00,CLR,FEW,0.00,0.0,WeatherDisplay:10.37,2013-04-05 20:11:00,
2013-04-05 22:17:00,34.9,30.8,28.64,SE,135,4.6,4.6,85,0.00,CLR,FEW,0.00,0.0,WeatherDisplay:10.37,2013-04-05 20:17:00,
2013-04-05 22:22:00,34.9,30.8,28.64,ESE,105,4.6,4.6,85,0.00,CLR,FEW,0.00,0.0,WeatherDisplay:10.37,2013-04-05 20:22:00,
2013-04-05 22:27:00,34.9,30.8,28.67,ESE,105,5.8,5.8,85,0.00,CLR,FEW,0.00,0.0,WeatherDisplay:10.37,2013-04-05 20:27:00,
2013-04-05 22:32:00,34.9,30.8,28.67,ESE,105,5.8,5.8,85,0.00,CLR,FEW,0.00,0.0,WeatherDisplay:10.37,2013-04-05 20:32:00,
2013-04-05 22:37:00,34.9,30.8,28.67,SSE,160,5.8,5.8,85,0.00,CLR,FEW,0.00,0.0,WeatherDisplay:10.37,2013-04-05 20:37:00,
2013-04-05 22:42:00,34.9,30.8,28.67,East,95,5.8,6.0,85,0.00,CLR,FEW,0.00,0.0,WeatherDisplay:10.37,2013-04-05 20:42:00,
2013-04-05 22:47:00,34.9,30.8,28.67,SSE,160,5.8,6.2,85,0.00,CLR,FEW,0.00,0.0,WeatherDisplay:10.37,2013-04-05 20:47:00,
2013-04-05 22:52:00,34.9,30.8,28.67,SE,140,5.8,5.8,85,0.00,CLR,FEW,0.00,0.0,WeatherDisplay:10.37,2013-04-05 20:52:00,
2013-04-05 22:57:00,34.9,30.8,28.67,NE,45,1.1,1.3,85,0.00,CLR,FEW,0.00,0.0,WeatherDisplay:10.37,2013-04-05 20:57:00,
2013-04-05 23:02:00,34.9,30.8,28.67,SE,140,3.5,4.0,85,0.00,CLR,FEW,0.00,0.0,WeatherDisplay:10.37,2013-04-05 21:02:00,
2013-04-05 23:07:00,34.9,30.8,28.67,ENE,75,3.5,3.5,85,0.00,CLR,FEW,0.00,0.0,WeatherDisplay:10.37,2013-04-05 21:07:00,
2013-04-05 23:12:00,34.9,30.8,28.67,ENE,75,3.5,3.5,85,0.00,CLR,FEW,0.00,0.0,WeatherDisplay:10.37,2013-04-05 21:12:00,
2013-04-05 23:17:00,34.9,30.8,28.67,NNE,20,3.5,3.5,85,0.00,CLR,FEW,0.00,0.0,WeatherDisplay:10.37,2013-04-05 21:17:00,
2013-04-05 23:22:00,34.9,30.8,28.67,East,100,3.5,3.5,85,0.00,CLR,FEW,0.00,0.0,WeatherDisplay:10.37,2013-04-05 21:22:00,
2013-04-05 23:27:00,34.9,30.8,28.67,SSE,150,4.6,4.6,85,0.00,CLR,FEW,0.00,0.0,WeatherDisplay:10.37,2013-04-05 21:27:00,
2013-04-05 23:32:00,34.9,30.8,28.67,East,80,3.5,3.5,85,0.00,CLR,FEW,0.00,0.0,WeatherDisplay:10.37,2013-04-05 21:32:00,
2013-04-05 23:37:00,34.9,30.8,28.67,East,80,3.5,3.5,85,0.00,CLR,FEW,0.00,0.0,WeatherDisplay:10.37,2013-04-05 21:37:00,
2013-04-05 23:43:00,34.9,30.5,28.67,NNW,345,1.1,1.1,84,0.00,CLR,FEW,0.00,0.0,WeatherDisplay:10.37,2013-04-05 21:43:00,
2013-04-05 23:48:00,34.7,30.7,28.67,NE,45,2.3,2.6,85,0.00,CLR,FEW,0.00,0.0,WeatherDisplay:10.37,2013-04-05 21:48:00,
2013-04-05 23:53:00,34.7,30.7,28.67,NW,320,4.6,4.6,85,0.00,CLR,FEW,0.00,0.0,WeatherDisplay:10.37,2013-04-05 21:53:00,
2013-04-05 23:58:00,34.9,30.5,28.67,SE,145,3.5,3.8,84,0.00,CLR,FEW,0.00,0.0,WeatherDisplay:10.37,2013-04-05 21:58:00,